Location: Pinon Hills
(34.4429°N, 117.6403°W)
Time: 23:24:51
(UTC-07:00)

Uosat F - Visible Passes

Search period start: 01 October 2014 00:00
Search period end: 11 October 2014 00:00
Orbit: 752 x 762 km, 98.7° (Epoch: 01 October)

Date Brightness Start Highest point End Pass type
(mag) Time Alt. Az. Time Alt. Az. Time Alt. Az.
01 Oct 12.0 04:52:33 10° NNE 04:57:25 47° E 05:02:15 10° S visible
02 Oct 13.6 04:14:36 10° NE 04:18:05 19° E 04:21:33 10° SE visible
02 Oct 11.5 05:52:16 10° N 05:56:59 41° WNW 06:01:41 10° SW visible
03 Oct 11.2 05:12:55 10° NNE 05:17:58 78° ESE 05:23:00 10° S visible
04 Oct 12.9 04:34:20 10° NE 04:38:45 30° E 04:43:08 10° SSE visible
04 Oct 12.1 06:13:14 10° NNW 06:17:22 26° WNW 06:21:30 10° SW visible
05 Oct 14.1 03:57:44 10° ENE 03:59:19 11° E 04:00:54 10° ESE visible
05 Oct 11.0 05:33:28 10° N 05:38:28 65° WNW 05:43:27 10° SSW visible
06 Oct 12.0 04:54:28 10° NNE 04:59:21 49° E 05:04:13 10° S visible
07 Oct 13.5 04:16:28 10° NE 04:20:02 19° E 04:23:35 10° SE visible
07 Oct 11.5 05:54:13 10° N 05:58:55 40° WNW 06:03:35 10° SW visible
08 Oct 11.1 05:14:50 10° NNE 05:19:54 80° ESE 05:24:57 10° S visible
09 Oct 12.8 04:36:14 10° NE 04:40:41 31° E 04:45:07 10° SSE visible
09 Oct 12.1 06:15:12 10° NNW 06:19:17 25° WNW 06:23:23 10° WSW visible
10 Oct 14.0 03:59:27 10° ENE 04:01:16 12° E 04:03:04 10° ESE visible
10 Oct 11.0 05:35:24 10° N 05:40:24 63° WNW 05:45:22 10° SSW visible
